Location: Culleoka
(33.1312°N, 96.4919°W)
Time: 13:14:21
(UTC+00:00)

Cosmos 2228 Rocket - Pass Details

Date: 08 December 2021
Orbit: 618 x 651 km, 82.5° (Epoch: 22 January)

Event Time Altitude Azimuth Distance (km) Brightness Sun altitude
Rises 12:15:32 0° 359° (N) 2,946 6.3 -12.7°
Reaches altitude 10° 12:17:49 10° 4° (N) 2,039 5.6 -12.2°
Maximum altitude 12:22:16 54° 82° (E) 782 3.9 -11.4°
Drops below altitude 10° 12:26:42 10° 160° (SSE) 2,042 6.3 -10.5°
Sets 12:29:00 0° 164° (SSE) 2,951 7.1 -10.0°
